Flag for Indonesia Weather past 2 weeks in Medan, North Sumatra, Indonesia

Now
84 °F

Scattered clouds.


Feels Like: 98 °F
Forecast: 76 / 91 °F
Wind: 5 mph from North

Location: Medan / Polonia

Current Time: Sep 5, 2015 at 6:07:09 PM

Latest Report: Sep 5, 2015 at 5:30 PM


Visibility: 3 mi

Pressure: 29.83 "Hg

Humidity: 89%

Dew point: 81 °F

Location of MedanLocation

Historic Weather in Medan — Graph

°F

Medan temperature yesterday

Maximum temperature yesterday: 91 °F (at 2:30 PM)
Minimum temperature yesterday: 77 °F (at 7:00 AM)
Average temperature yesterday: 83 °F

Past Weeks' High & Low Weather Summary

 TemperatureHumidityPressure
High95 °F (Aug 28, 1:00 PM)100% (Aug 22, 7:30 AM)29.98 "Hg (Aug 22, 7:30 AM)
Low75 °F (Aug 22, 10:00 PM)44% (Sep 3, 3:30 PM)29.71 "Hg (Aug 22, 4:30 PM)
Average83 °F87%29.83 "Hg
* Reported Aug 21 5:00 PM — Sep 5 5:00 PM, Medan, Weather by CustomWeather, © 2015

Note: Actual official high and low records may vary slightly from our data, if they occured in-between our weather recording intervals... More about our weather records

Advertising

Medan weather history for previous 24 hours

 ConditionsComfort  
Time TempWeatherWind HumidityBarometerVisibility
5:00 PM
Sat, Sep 5
86 °FScattered clouds.5 mph84%29.83 "Hg3 mi
4:30 PM86 °FScattered clouds.5 mph84%29.83 "Hg3 mi
4:00 PM86 °FScattered clouds.5 mph84%29.83 "Hg3 mi
3:30 PM86 °FScattered clouds.5 mph84%29.83 "Hg3 mi
3:00 PM88 °FScattered clouds.5 mph70%29.83 "Hg4 mi
2:30 PM86 °FScattered clouds.5 mph79%29.86 "Hg4 mi
2:00 PM84 °FScattered clouds.No wind84%29.89 "Hg4 mi
1:30 PM82 °FScattered clouds.5 mph84%29.89 "Hg4 mi
1:00 PM84 °FScattered clouds.6 mph84%29.92 "Hg4 mi
12:30 PM84 °FScattered clouds.7 mph84%29.95 "Hg3 mi
12:00 PM81 °FPartly sunny.6 mph94%29.98 "Hg2 mi
11:30 AM79 °FPartly sunny.7 mph100%29.98 "Hg2 mi
11:00 AM79 °FPartly sunny.7 mph100%29.98 "Hg2 mi
10:30 AM79 °FLight rain. Partly sunny.6 mph100%29.98 "Hg3 mi
10:00 AM79 °FLight rain. Scattered clouds.5 mph100%29.98 "Hg4 mi
9:30 AM77 °FLight rain. Scattered clouds.6 mph100%29.98 "Hg3 mi
9:00 AM77 °FLight rain. Scattered clouds.12 mph100%29.98 "Hg2 mi
8:30 AM77 °FFog.9 mph100%29.95 "Hg2 mi
8:00 AM75 °FFog.6 mph100%29.95 "Hg2 mi
7:30 AM75 °FFog.3 mph100%29.95 "Hg1 mi
7:00 AM75 °FFog.5 mph100%29.92 "Hg1 mi
6:30 AM75 °FFog.5 mph100%29.92 "Hg1 mi
6:00 AM75 °FPassing clouds.5 mph100%29.89 "Hg3 mi
5:30 AM75 °FFog.3 mph100%29.89 "Hg2 mi
5:00 AM75 °FFog.2 mph100%29.89 "Hg1 mi
4:00 AM77 °FThunderstorms. Passing clouds.6 mph100%29.89 "Hg1 mi
3:30 AM77 °FThunderstorms. Passing clouds.6 mph100%29.89 "Hg1 mi
3:00 AM77 °FThunderstorms. Passing clouds.7 mph100%29.89 "Hg2 mi
2:30 AM77 °FThunderstorms. Passing clouds.6 mph100%29.86 "Hg2 mi
2:00 AM77 °FThunderstorms. Partly cloudy.10 mph100%29.86 "Hg1 mi
1:30 AM79 °FThunderstorms. Passing clouds.12 mph100%29.86 "Hg1 mi
1:00 AM81 °FThunderstorms. Passing clouds.7 mph94%29.89 "Hg1 mi
12:30 AM81 °FThundershowers. Passing clouds.6 mph94%29.92 "Hg1 mi
12:00 AM81 °FPassing clouds.6 mph94%29.92 "Hg1 mi
11:00 PM
Fri, Sep 4
81 °FOvercast.3 mph94%29.92 "Hg1 mi
10:30 PM81 °FPassing clouds.2 mph100%29.92 "Hg1 mi
10:00 PM81 °FPassing clouds.2 mph100%29.92 "Hg1 mi
9:30 PM81 °FMostly cloudy.3 mph100%29.89 "Hg1 mi
9:00 PM82 °FPassing clouds.No wind100%29.89 "Hg1 mi
8:30 PM81 °FDense fog.2 mph100%29.89 "Hg1 mi
8:00 PM81 °FPassing clouds.No wind100%29.86 "Hg1 mi
7:30 PM82 °FPassing clouds.2 mph100%29.86 "Hg1 mi
7:00 PM84 °FPassing clouds.7 mph94%29.83 "Hg1 mi
6:30 PM84 °FPassing clouds.6 mph89%29.83 "Hg1 mi
6:00 PM86 °FScattered clouds.6 mph84%29.80 "Hg2 mi
Weather by CustomWeather, © 2015

See weather overviewHow to use our weather pages